Regional Weather Roundup
Issued by NWS Sioux Falls, SD

Home | Current Version | Previous Version | Graphics & Text | Print | Product List | Glossary Off
Versions: 1 2 3 4 5 6 7 8 9 10 11 12 13 14 15 16 17 18 19 20 21 22 23 24 25 26 27 28 29 30 31 32 33 34 35 36 37 38 39 40 41 42 43 44 45 46 47 48 49 50

000
ASUS43 KFSD 041110
RWRFSD

WEATHER ROUNDUP FOR SE SOUTH DAKOTA/SW MINNESOTA/NW IOWA
NATIONAL WEATHER SERVICE SIOUX FALLS SD
600 AM CDT SAT JUL 04 2015

NOTE: "FAIR" INDICATES FEW OR NO CLOUDS BELOW 12,000 FEET WITH NO
SIGNIFICANT WEATHER AND OR OBSTRUCTIONS TO VISIBILITY.


SDZ038>040-050-052>070-041200-
SOUTHEAST SOUTH DAKOTA

CITY           SKY/WX    TMP DP  RH WIND       PRES   REMARKS
BROOKINGS      CLEAR     63  61  94 S5        29.97S
CHAMBERLAIN    PTCLDY    63  62  97 SE3       29.91F
HURON          CLEAR     63  62  97 SE8       29.91S FOG
MADISON        FAIR      61  61 100 S6        29.96F
MITCHELL       CLEAR     63  62  97 S8        29.93F FOG
SIOUX FALLS    CLEAR     62  59  90 CALM      29.96F
WINNER         FAIR      69  60  73 S14       29.91S
YANKTON          N/A     59  57  94 SE5       29.95F VSB<1/4
$$

MNZ071-072-080-081-089-090-097-098-041200-
SOUTHWEST MINNESOTA

CITY           SKY/WX    TMP DP  RH WIND       PRES   REMARKS
FAIRMONT       CLEAR     63  54  72 CALM      29.97S
JACKSON        CLEAR     63  55  77 SW6       29.98F HAZE
LUVERNE        CLOUDY    59  55  88 CALM      29.98S VSB<1/4
MARSHALL       CLEAR     66  59  77 W6          N/A
MONTEVIDEO       N/A     63  63 100 CALM      29.94S FOG
PIPESTONE      CLEAR     63  61  94 CALM      29.97S FOG
REDWOOD FALLS  CLEAR     64  61  90 S3        29.94R FOG
TRACY          MOCLDY    67  63  89 SW8       29.96S FOG
WINDOM         CLEAR     63  59  88 CALM      29.98S FOG
WORTHINGTON    CLEAR     63  54  72 SW7       29.98S
$$

IAZ001>003-012>014-020>022-031-032-NEZ013-014-SDZ071-041200-
NORTHWEST IOWA

CITY           SKY/WX    TMP DP  RH WIND       PRES   REMARKS
CHEROKEE       CLEAR     54  54 100 CALM      29.99S FOG
DENISON        PTCLDY    52  52 100 SE3       29.98S
ESTHERVILLE    CLEAR     58  55  90 W6        29.98S FOG
LE MARS          N/A     55  55 100 CALM      29.99S FOG
ORANGE CITY    CLEAR     57  54  88 CALM      29.98F
SHELDON        PTCLDY    57  57 100 CALM      29.97F FOG
SIOUX CITY     CLEAR     57  53  86 E5        29.98F
SPENCER        CLEAR     56  52  86 CALM      29.99R FOG
STORM LAKE     CLEAR     59  54  82 SW6       30.01R
$$

ABBREVIATIONS USED IN REMARKS
   TC - TEMPERATURE IN CELSIUS
  WCI - WIND CHILL INDEX
   HX - HEAT INDEX
  VSB - VISIBILITY




USA.gov is the U.S. government's official web portal to all federal, state and local government web resources and services.